K9BM Weather Reports


Display with metric or nautical units.
time (UTC)temp
F
wind
direction
speed
MPH
gust
MPH
rain 1hr
in
rain 24hr
in
rain mn
in
humidity
%
barometer
mb
20260831202506 76 281 9.0 15.0 0.00 0.00 0.00 18 1010.8
20260831202006 76 286 10.0 15.0 0.00 0.00 0.00 18 1010.8
20260831195506 75 271 12.0 17.0 0.00 0.00 0.00 17 1011.1
20260831194505 75 271 8.0 13.0 0.00 0.00 0.00 19 1011.2
20260831193506 74 270 4.0 20.0 0.00 0.00 0.00 18 1011.3
20260831192006 73 279 9.0 16.0 0.00 0.00 0.00 19 1011.6
20260831191506 73 260 13.0 16.0 0.00 0.00 0.00 18 1011.6
20260831191006 72 241 7.0 16.0 0.00 0.00 0.00 20 1011.6
20260831190006 72 263 10.0 15.0 0.00 0.00 0.00 20 1011.7
20260831185506 72 264 10.0 20.0 0.00 0.00 0.00 21 1011.7
20260831185006 71 254 10.0 20.0 0.00 0.00 0.00 21 1011.8
20260831184006 71 245 10.0 17.0 0.00 0.00 0.00 21 1011.8
20260831183006 70 251 10.0 20.0 0.00 0.00 0.00 22 1012.0
20260831182505 70 245 13.0 20.0 0.00 0.00 0.00 22 1012.1
20260831181506 70 245 10.0 18.0 0.00 0.00 0.00 23 1012.1
20260831181006 70 266 12.0 18.0 0.00 0.00 0.00 23 1012.2
20260831180006 69 258 9.0 16.0 0.00 0.00 0.00 24 1012.2
20260831175506 69 248 9.0 16.0 0.00 0.00 0.00 24 1012.4
20260831175006 69 249 9.0 16.0 0.00 0.00 0.00 23 1012.4
20260831174506 69 266 11.0 16.0 0.00 0.00 0.00 25 1012.5
20260831174006 69 255 12.0 15.0 0.00 0.00 0.00 23 1012.6
20260831173505 69 254 7.0 14.0 0.00 0.00 0.00 24 1012.6
20260831173006 68 266 7.0 15.0 0.00 0.00 0.00 25 1012.6
20260831172506 68 241 8.0 15.0 0.00 0.00 0.00 25 1012.7
20260831172006 67 261 8.0 14.0 0.00 0.00 0.00 26 1012.7
20260831170005 66 248 9.0 17.0 0.00 0.00 0.00 27 1012.8
20260831165505 65 239 9.0 18.0 0.00 0.00 0.00 27 1012.8
20260831165006 65 255 13.0 18.0 0.00 0.00 0.00 26 1012.8
20260831164506 65 270 10.0 16.0 0.00 0.00 0.00 27 1012.8
20260831164005 65 255 13.0 16.0 0.00 0.00 0.00 27 1012.8
20260831163006 64 274 10.0 17.0 0.00 0.00 0.00 28 1012.7
20260831162006 64 265 10.0 18.0 0.00 0.00 0.00 29 1012.8
20260831161506 64 273 13.0 18.0 0.00 0.00 0.00 28 1012.8
20260831161005 63 270 9.0 14.0 0.00 0.00 0.00 30 1012.8
20260831160006 63 251 10.0 17.0 0.00 0.00 0.00 31 1012.8
20260831155506 62 271 10.0 17.0 0.00 0.00 0.00 32 1012.7
20260831155006 62 253 11.0 17.0 0.00 0.00 0.00 32 1012.7
20260831154505 62 256 10.0 15.0 0.00 0.00 0.00 32 1012.8
20260831154006 62 272 10.0 15.0 0.00 0.00 0.00 32 1012.7
20260831153506 61 264 9.0 18.0 0.00 0.00 0.00 32 1012.6
20260831153006 61 264 11.0 18.0 0.00 0.00 0.00 33 1012.7
20260831152505 61 265 12.0 16.0 0.00 0.00 0.00 32 1012.8
20260831152005 60 269 12.0 18.0 0.00 0.00 0.00 33 1012.7
20260831151005 60 276 13.0 17.0 0.00 0.00 0.00 33 1012.6
20260831150006 60 261 13.0 18.0 0.00 0.00 0.00 34 1012.6
20260831145006 59 264 12.0 18.0 0.00 0.00 0.00 35 1012.5
20260831144505 59 263 13.0 18.0 0.00 0.00 0.00 35 1012.4
20260831144006 59 243 11.0 20.0 0.00 0.00 0.00 35 1012.4
20260831143006 58 264 13.0 20.0 0.00 0.03 0.00 36 1012.1
20260831142505 58 253 14.0 21.0 0.00 0.05 0.00 37 1012.0
20260831142006 58 244 12.0 21.0 0.00 0.07 0.00 37 1011.9
20260831141505 58 240 13.0 20.0 0.00 0.08 0.00 37 1011.8
20260831141006 57 244 12.0 20.0 0.00 0.09 0.00 37 1011.9
20260831140005 57 246 11.0 20.0 0.00 0.11 0.00 37 1011.8
20260831135006 57 245 14.0 23.0 0.00 0.11 0.00 36 1011.6
20260831132006 57 254 18.0 23.0 0.00 0.11 0.00 36 1011.4
20260831131506 56 249 17.0 24.0 0.00 0.11 0.00 36 1011.4
20260831131006 56 251 18.0 24.0 0.00 0.11 0.00 38 1011.3
20260831130005 55 243 15.0 22.0 0.00 0.11 0.00 39 1011.1
20260831125006 55 246 17.0 25.0 0.00 0.11 0.00 39 1011.0
20260831124506 55 245 16.0 25.0 0.00 0.11 0.00 40 1010.9
20260831124005 55 243 16.0 24.0 0.00 0.11 0.00 40 1010.9
20260831122505 54 244 16.0 23.0 0.00 0.11 0.00 41 1010.7
20260831122006 53 242 14.0 20.0 0.00 0.11 0.00 43 1010.7
20260831121506 53 236 10.0 16.0 0.00 0.11 0.00 44 1010.7
20260831121005 53 234 11.0 20.0 0.00 0.11 0.00 44 1010.7
20260831120005 53 234 12.0 17.0 0.00 0.11 0.00 45 1010.7
20260831115506 53 231 10.0 17.0 0.00 0.11 0.00 45 1010.7
20260831115006 53 235 10.0 14.0 0.00 0.12 0.00 45 1010.7
20260831114506 53 236 10.0 14.0 0.00 0.12 0.00 46 1010.8
20260831114006 53 234 10.0 14.0 0.00 0.12 0.00 46 1010.8
20260831113506 53 231 10.0 13.0 0.00 0.12 0.00 47 1010.8
20260831113005 53 233 10.0 14.0 0.00 0.12 0.00 47 1010.8
20260831112506 53 229 10.0 14.0 0.00 0.12 0.00 47 1010.8
20260831112005 53 229 9.0 13.0 0.00 0.12 0.00 47 1010.7
20260831111505 53 226 9.0 13.0 0.00 0.12 0.00 47 1010.8
20260831111005 53 227 8.0 13.0 0.00 0.12 0.00 47 1010.8
20260831110005 53 232 9.0 12.0 0.00 0.12 0.00 47 1010.9
20260831105506 53 232 9.0 12.0 0.00 0.12 0.00 46 1010.9
20260831105006 53 228 8.0 13.0 0.00 0.12 0.00 46 1010.8
20260831104505 53 228 9.0 14.0 0.00 0.12 0.00 46 1010.8
20260831104005 53 230 10.0 16.0 0.00 0.12 0.00 46 1010.8
20260831103005 53 232 10.0 16.0 0.00 0.12 0.00 46 1010.7
20260831102505 53 231 9.0 14.0 0.00 0.12 0.00 46 1010.7
20260831101505 53 231 9.0 13.0 0.00 0.12 0.00 48 1010.8
20260831101006 53 225 8.0 13.0 0.00 0.12 0.00 48 1010.7
20260831100005 53 231 7.0 12.0 0.00 0.12 0.00 48 1010.7
20260831095506 53 212 7.0 12.0 0.00 0.12 0.00 48 1010.7
20260831095006 53 229 7.0 12.0 0.00 0.12 0.00 48 1010.7
20260831094506 53 231 7.0 12.0 0.00 0.12 0.00 48 1010.7
20260831094005 53 231 7.0 12.0 0.00 0.12 0.00 48 1010.7
20260831093505 53 231 7.0 12.0 0.00 0.12 0.00 48 1010.7
20260831093005 53 233 7.0 12.0 0.00 0.12 0.00 48 1010.7
20260831092506 53 231 7.0 12.0 0.00 0.12 0.00 48 1010.8
20260831092006 53 230 7.0 10.0 0.00 0.12 0.00 48 1010.7
20260831091505 53 222 6.0 10.0 0.00 0.12 0.00 48 1010.7
20260831090005 53 229 6.0 10.0 0.00 0.12 0.00 49 1010.7
20260831085505 52 210 6.0 10.0 0.00 0.12 0.00 49 1010.8
20260831085005 52 205 7.0 12.0 0.00 0.12 0.00 50 1010.7
20260831084506 52 206 8.0 12.0 0.00 0.12 0.00 50 1010.7
20260831083006 53 213 5.0 9.0 0.00 0.12 0.00 49 1010.7
20260831082506 53 207 5.0 10.0 0.00 0.12 0.00 49 1010.7
20260831082006 53 202 6.0 10.0 0.00 0.12 0.00 49 1010.7
20260831081506 53 200 6.0 9.0 0.00 0.12 0.00 48 1010.7
20260831081006 54 220 4.0 9.0 0.00 0.12 0.00 47 1010.7
20260831080006 54 218 5.0 9.0 0.00 0.12 0.00 47 1010.6
20260831075505 54 213 5.0 9.0 0.00 0.12 0.00 48 1010.6
20260831075006 54 197 5.0 9.0 0.00 0.12 0.00 47 1010.5
20260831074505 54 202 4.0 9.0 0.00 0.12 0.00 48 1010.4
20260831074006 54 217 5.0 10.0 0.00 0.12 0.00 48 1010.4
20260831073505 54 202 7.0 10.0 0.00 0.12 0.00 48 1010.4
20260831072505 54 199 6.0 10.0 0.00 0.12 0.00 48 1010.3
20260831072006 54 207 5.0 8.0 0.00 0.12 0.00 48 1010.3
20260831071505 54 206 6.0 9.0 0.00 0.12 0.00 47 1010.3
20260831071005 54 205 6.0 9.0 0.00 0.12 0.00 48 1010.2
20260831070005 54 201 7.0 12.0 0.00 0.12 0.00 48 1010.1
20260831065505 55 196 9.0 10.0 0.00 0.12 0.00 47 1010.0
20260831065005 55 211 5.0 10.0 0.00 0.12 0.00 46 1010.0
20260831064505 55 230 6.0 9.0 0.00 0.12 0.00 46 1009.9
20260831064005 55 229 6.0 7.0 0.00 0.12 0.00 47 1009.8
20260831063505 55 223 5.0 7.0 0.00 0.12 0.00 48 1009.8
20260831063005 55 222 5.0 10.0 0.00 0.12 0.00 48 1009.8
20260831062005 55 204 6.0 10.0 0.00 0.12 0.00 47 1009.7
20260831061505 55 201 8.0 10.0 0.00 0.12 0.00 47 1009.6
20260831061006 56 205 6.0 10.0 0.00 0.12 0.00 46 1009.5
20260831060006 56 217 6.0 9.0 0.00 0.12 0.00 46 1009.3
20260831055505 56 226 6.0 10.0 0.00 0.12 0.12 46 1009.2
20260831055006 56 218 6.0 10.0 0.00 0.12 0.12 46 1009.2
20260831054505 56 208 6.0 10.0 0.00 0.12 0.12 46 1009.1
20260831054005 56 218 6.0 10.0 0.00 0.12 0.12 46 1009.1
20260831053505 56 218 6.0 10.0 0.00 0.12 0.12 47 1009.1
20260831053006 56 216 5.0 9.0 0.00 0.12 0.12 47 1009.0
20260831052505 56 213 6.0 10.0 0.00 0.12 0.12 47 1009.0
20260831052005 56 229 6.0 10.0 0.00 0.12 0.12 46 1009.1
20260831051005 56 208 5.0 8.0 0.00 0.13 0.12 46 1009.1
20260831050005 57 233 5.0 8.0 0.00 0.13 0.12 43 1009.1
20260831045505 57 227 5.0 9.0 0.00 0.13 0.12 43 1009.1
20260831045005 57 203 5.0 9.0 0.00 0.13 0.12 43 1009.1
20260831044505 57 200 6.0 10.0 0.00 0.13 0.12 42 1009.0
20260831043505 58 198 6.0 9.0 0.00 0.13 0.12 40 1009.1
20260831043005 58 205 3.0 7.0 0.00 0.13 0.12 38 1009.1
20260831042005 58 199 5.0 10.0 0.00 0.13 0.12 38 1008.9
20260831041505 58 184 4.0 12.0 0.00 0.13 0.12 39 1008.9
20260831040005 59 190 5.0 6.0 0.00 0.13 0.12 38 1008.7
20260831035505 59 201 3.0 8.0 0.00 0.13 0.12 37 1008.6
20260831035005 59 199 3.0 8.0 0.00 0.13 0.12 37 1008.7
20260831034505 59 194 6.0 12.0 0.00 0.13 0.12 38 1008.7
20260831034005 59 184 7.0 12.0 0.00 0.13 0.12 39 1008.7
20260831033505 60 182 7.0 9.0 0.00 0.13 0.12 40 1008.6
20260831033005 60 196 5.0 8.0 0.00 0.13 0.12 39 1008.5
20260831032505 60 192 5.0 8.0 0.00 0.13 0.12 40 1008.5
20260831032005 60 226 5.0 9.0 0.00 0.13 0.12 39 1008.5
20260831031505 60 209 3.0 9.0 0.00 0.13 0.12 40 1008.4
20260831031005 60 201 6.0 9.0 0.00 0.13 0.12 40 1008.4
20260831030005 61 228 5.0 6.0 0.00 0.13 0.12 38 1008.3
20260831025505 61 230 3.0 6.0 0.00 0.13 0.12 38 1008.1
20260831025006 61 230 5.0 6.0 0.00 0.13 0.12 37 1008.0
20260831024506 61 230 3.0 6.0 0.00 0.13 0.12 37 1008.0
20260831024005 61 228 3.0 8.0 0.00 0.13 0.12 37 1007.9
20260831023505 62 200 5.0 8.0 0.00 0.13 0.12 36 1007.8
20260831023006 62 201 5.0 7.0 0.00 0.13 0.12 36 1007.7
20260831022504 63 229 5.0 9.0 0.00 0.13 0.12 34 1007.6
20260831022005 64 229 4.0 12.0 0.00 0.13 0.12 34 1007.5
20260831021505 64 239 7.0 13.0 0.00 0.13 0.12 33 1007.6
20260831021006 64 251 9.0 13.0 0.00 0.13 0.12 32 1007.4
20260831015505 65 270 10.0 16.0 0.00 0.13 0.12 29 1007.4
20260831015006 66 267 10.0 14.0 0.00 0.13 0.12 29 1007.3
20260831014505 66 261 8.0 14.0 0.00 0.13 0.12 29 1007.3
20260831013505 66 259 12.0 16.0 0.00 0.13 0.12 29 1007.3
20260831013005 66 259 11.0 16.0 0.00 0.13 0.12 29 1007.3
20260831012505 67 265 11.0 15.0 0.00 0.13 0.12 29 1007.3
20260831011505 67 268 12.0 15.0 0.00 0.13 0.12 28 1007.3
20260831011005 67 263 9.0 18.0 0.00 0.13 0.12 29 1007.4
20260831010005 67 272 12.0 18.0 0.00 0.13 0.12 29 1007.4
20260831005505 67 277 10.0 17.0 0.00 0.13 0.12 31 1007.3
20260831004505 67 283 10.0 20.0 0.00 0.13 0.12 32 1007.3
20260831004005 67 294 12.0 20.0 0.00 0.13 0.12 31 1007.3
20260831003505 67 285 12.0 20.0 0.00 0.15 0.12 31 1007.1
20260831003005 68 278 10.0 20.0 0.00 0.21 0.12 31 1007.1
20260831002505 68 287 12.0 20.0 0.00 0.23 0.12 31 1007.1
20260831002006 69 281 12.0 18.0 0.00 0.23 0.12 30 1007.1
20260831001505 69 286 14.0 20.0 0.00 0.23 0.12 29 1007.0
20260831001005 70 272 14.0 20.0 0.00 0.23 0.12 29 1007.1
20260831000005 70 281 14.0 24.0 0.00 0.23 0.12 29 1007.0
20260830235505 70 282 17.0 22.0 0.00 0.23 0.12 28 1006.9
20260830235005 70 284 12.0 22.0 0.00 0.23 0.12 29 1006.8
20260830234505 70 274 14.0 26.0 0.00 0.23 0.12 29 1006.9
20260830234005 70 286 16.0 26.0 0.00 0.23 0.12 28 1007.0
20260830233505 70 276 18.0 26.0 0.00 0.23 0.12 27 1006.9
20260830233005 70 273 16.0 26.0 0.00 0.23 0.12 28 1006.9
20260830232505 70 289 17.0 24.0 0.00 0.23 0.12 28 1006.8
20260830232006 70 270 17.0 26.0 0.00 0.23 0.12 27 1006.8
20260830231505 70 275 18.0 26.0 0.00 0.23 0.12 28 1006.8
20260830231005 70 275 17.0 25.0 0.00 0.23 0.12 28 1006.9
20260830230005 70 274 15.0 22.0 0.00 0.23 0.12 29 1006.9
20260830224505 70 284 14.0 25.0 0.00 0.23 0.12 30 1006.9
20260830224005 70 264 16.0 25.0 0.00 0.23 0.12 28 1007.0
20260830223505 70 280 14.0 23.0 0.00 0.23 0.12 28 1006.9
20260830223005 69 299 15.0 24.0 0.00 0.23 0.12 29 1006.9
20260830222505 69 298 13.0 24.0 0.00 0.23 0.12 30 1006.9
20260830222005 69 283 14.0 26.0 0.00 0.23 0.12 29 1006.9
20260830221505 69 278 16.0 26.0 0.00 0.23 0.12 30 1007.0
20260830220005 69 292 12.0 20.0 0.00 0.23 0.12 32 1007.2
20260830215505 69 280 13.0 20.0 0.00 0.23 0.12 32 1007.3
20260830215005 69 287 12.0 20.0 0.00 0.23 0.12 34 1007.3
20260830214005 68 297 12.0 25.0 0.00 0.23 0.12 35 1007.3
20260830213505 68 297 15.0 25.0 0.00 0.23 0.12 35 1007.5
20260830213005 68 286 14.0 26.0 0.00 0.23 0.12 34 1007.6
20260830212505 68 287 14.0 26.0 0.00 0.23 0.12 35 1007.7
20260830212005 68 283 14.0 25.0 0.00 0.23 0.12 36 1007.8
20260830211504 67 300 14.0 23.0 0.00 0.23 0.12 36 1007.7
20260830211005 67 298 15.0 24.0 0.00 0.23 0.12 36 1007.6
20260830210005 67 295 17.0 26.0 0.00 0.23 0.12 36 1007.7
20260830205504 67 279 14.0 22.0 0.00 0.23 0.12 37 1007.7
20260830205004 67 284 15.0 21.0 0.00 0.23 0.12 39 1007.6
20260830204505 67 276 12.0 21.0 0.00 0.23 0.12 43 1007.6
20260830204004 66 283 11.0 20.0 0.00 0.23 0.12 44 1007.6
20260830203505 66 284 14.0 20.0 0.00 0.23 0.12 43 1007.7
20260830203005 66 293 12.0 20.0 0.00 0.23 0.12 45 1007.7